{"data":{"norad_id":65291,"epoch":"2026-09-20T14:03:33.594336Z","epoch_age_seconds":110086,"freshness":"FRESH","line1":"1 65291U 25184U   26263.58580549  .00007755  00000+0  24223-3 0  9995","line2":"2 65291  97.2837 311.4912 0000767  87.9310 272.2020 15.33450862 60738","mean_motion":15.33450862,"eccentricity":7.67e-5,"inclination_deg":97.2837,"raan_deg":311.4912,"arg_perigee_deg":87.931,"mean_anomaly_deg":272.202,"bstar":0.00024223,"rev_number":6073,"period_min":93.905845676847,"perigee_km":465.00082441431,"apogee_km":466.05064227761,"semimajor_km":6843.662733346,"source":"CELESTRAK","updated_at":"2026-09-21T09:00:35.567334Z"}}